Time,TemperatureF,DewpointF,PressureIn,WindDirection,WindDirectionDegrees,WindSpeedMPH,WindSpeedGustMPH,Humidity,HourlyPrecipIn,Conditions,Clouds,dailyrainin,SolarRadiationWatts/m^2,SoftwareType,DateUTC
2013-02-13 00:21:00,14.0,11.0,-100.00,NNE,28,3.0,5.0,88,0.00,,,0.00,0.000000,,2013-02-13 07:21:00,
2013-02-13 00:31:00,14.0,11.0,-100.00,NNE,28,3.0,5.0,88,0.00,,,0.00,0.000000,,2013-02-13 07:31:00,
2013-02-13 00:41:00,14.0,11.0,-100.00,NNE,28,3.0,5.0,88,0.00,,,0.00,0.000000,,2013-02-13 07:41:00,
2013-02-13 00:51:00,14.0,11.0,-100.00,NNE,28,3.0,5.0,88,0.00,,,0.00,0.000000,,2013-02-13 07:51:00,
2013-02-13 01:21:00,16.0,14.0,-100.00,North,5,2.0,5.0,90,0.00,,,0.00,0.000000,,2013-02-13 08:21:00,
2013-02-13 01:31:00,16.0,14.0,-100.00,North,5,2.0,5.0,90,0.00,,,0.00,0.000000,,2013-02-13 08:31:00,
2013-02-13 01:43:00,16.0,14.0,-100.00,North,5,2.0,5.0,90,0.00,,,0.00,0.000000,,2013-02-13 08:43:00,
2013-02-13 01:52:00,16.0,14.0,-100.00,North,5,2.0,5.0,90,0.00,,,0.00,0.000000,,2013-02-13 08:52:00,
2013-02-13 02:21:00,17.0,15.0,-100.00,NNW,345,2.0,6.0,90,0.00,,,0.00,0.000000,,2013-02-13 09:21:00,
2013-02-13 02:31:00,17.0,15.0,-100.00,NNW,345,2.0,6.0,90,0.00,,,0.00,0.000000,,2013-02-13 09:31:00,
2013-02-13 02:41:00,17.0,15.0,-100.00,NNW,345,2.0,6.0,90,0.00,,,0.00,0.000000,,2013-02-13 09:41:00,
2013-02-13 02:51:00,17.0,15.0,-100.00,NNW,345,2.0,6.0,90,0.00,,,0.00,0.000000,,2013-02-13 09:51:00,
2013-02-13 03:21:00,18.0,16.0,-100.00,North,359,5.0,7.0,91,0.00,,,0.00,0.000000,,2013-02-13 10:21:00,
2013-02-13 03:31:00,18.0,16.0,-100.00,North,359,5.0,7.0,91,0.00,,,0.00,0.000000,,2013-02-13 10:31:00,
2013-02-13 03:41:00,18.0,16.0,-100.00,North,359,5.0,7.0,91,0.00,,,0.00,0.000000,,2013-02-13 10:41:00,
2013-02-13 03:51:00,18.0,16.0,-100.00,North,359,5.0,7.0,91,0.00,,,0.00,0.000000,,2013-02-13 10:51:00,
2013-02-13 04:22:00,17.0,15.0,-100.00,NNW,340,2.0,7.0,91,0.00,,,0.00,0.000000,,2013-02-13 11:22:00,
2013-02-13 04:32:00,17.0,15.0,-100.00,NNW,340,2.0,7.0,91,0.00,,,0.00,0.000000,,2013-02-13 11:32:00,
2013-02-13 04:42:00,17.0,15.0,-100.00,NNW,340,2.0,7.0,91,0.00,,,0.00,0.000000,,2013-02-13 11:42:00,
2013-02-13 04:52:00,17.0,15.0,-100.00,NNW,340,2.0,7.0,91,0.00,,,0.00,0.000000,,2013-02-13 11:52:00,
2013-02-13 05:21:00,17.0,15.0,-100.00,NNW,348,2.0,4.0,90,0.00,,,0.00,0.000000,,2013-02-13 12:21:00,
2013-02-13 05:32:00,17.0,15.0,-100.00,NNW,348,2.0,4.0,90,0.00,,,0.00,0.000000,,2013-02-13 12:32:00,
2013-02-13 05:42:00,17.0,15.0,-100.00,NNW,348,2.0,4.0,90,0.00,,,0.00,0.000000,,2013-02-13 12:42:00,
2013-02-13 05:52:00,17.0,15.0,-100.00,NNW,348,2.0,4.0,90,0.00,,,0.00,0.000000,,2013-02-13 12:52:00,
2013-02-13 06:21:00,20.0,18.0,-100.00,SSW,196,4.0,8.0,93,0.00,,,0.00,0.000000,,2013-02-13 13:21:00,
2013-02-13 06:31:00,20.0,18.0,-100.00,SSW,196,4.0,8.0,93,0.00,,,0.00,0.000000,,2013-02-13 13:31:00,
2013-02-13 06:41:00,20.0,18.0,-100.00,SSW,196,4.0,8.0,93,0.00,,,0.00,0.000000,,2013-02-13 13:41:00,
2013-02-13 06:51:00,20.0,18.0,-100.00,SSW,196,4.0,8.0,93,0.00,,,0.00,0.000000,,2013-02-13 13:51:00,
2013-02-13 07:21:00,23.0,19.0,-100.00,South,181,13.0,18.0,86,0.00,,,0.00,1.000000,,2013-02-13 14:21:00,
2013-02-13 07:31:00,23.0,19.0,-100.00,South,181,13.0,18.0,86,0.00,,,0.00,1.000000,,2013-02-13 14:31:00,
2013-02-13 07:41:00,23.0,19.0,-100.00,South,181,13.0,18.0,86,0.00,,,0.00,1.000000,,2013-02-13 14:41:00,
2013-02-13 07:52:00,23.0,19.0,-100.00,South,181,13.0,18.0,86,0.00,,,0.00,1.000000,,2013-02-13 14:52:00,
2013-02-13 08:21:00,23.0,20.0,-100.00,South,172,6.0,15.0,87,0.00,,,-99.99,4.000000,,2013-02-13 15:21:00,
2013-02-13 08:32:00,23.0,20.0,-100.00,South,172,6.0,15.0,87,0.00,,,-99.99,4.000000,,2013-02-13 15:32:00,
2013-02-13 08:42:00,23.0,20.0,-100.00,South,172,6.0,15.0,87,0.00,,,-99.99,4.000000,,2013-02-13 15:42:00,
2013-02-13 08:51:00,23.0,20.0,-100.00,South,172,6.0,15.0,87,0.00,,,-99.99,4.000000,,2013-02-13 15:51:00,
2013-02-13 09:11:00,23.0,19.0,-100.00,SW,216,4.0,12.0,84,0.00,,,0.00,26.000000,,2013-02-13 16:11:00,
2013-02-13 09:21:00,23.0,19.0,-100.00,SW,216,4.0,12.0,84,0.00,,,0.00,26.000000,,2013-02-13 16:21:00,
2013-02-13 09:31:00,23.0,19.0,-100.00,SW,216,4.0,12.0,84,0.00,,,0.00,26.000000,,2013-02-13 16:31:00,
2013-02-13 09:41:00,23.0,19.0,-100.00,SW,216,4.0,12.0,84,0.00,,,0.00,26.000000,,2013-02-13 16:41:00,
2013-02-13 09:51:00,23.0,19.0,-100.00,SW,216,4.0,12.0,84,0.00,,,0.00,26.000000,,2013-02-13 16:51:00,
2013-02-13 10:21:00,25.0,21.0,-100.00,South,181,8.0,11.0,85,0.00,,,0.00,63.000000,,2013-02-13 17:21:00,
2013-02-13 10:31:00,25.0,21.0,-100.00,South,181,8.0,11.0,85,0.00,,,0.00,63.000000,,2013-02-13 17:31:00,
2013-02-13 10:41:00,25.0,21.0,-100.00,South,181,8.0,11.0,85,0.00,,,0.00,63.000000,,2013-02-13 17:41:00,
2013-02-13 10:52:00,25.0,21.0,-100.00,South,181,8.0,11.0,85,0.00,,,0.00,63.000000,,2013-02-13 17:52:00,
2013-02-13 11:22:00,26.0,21.0,-100.00,South,181,22.0,27.0,82,0.00,,,0.00,195.000000,,2013-02-13 18:22:00,
2013-02-13 11:32:00,26.0,21.0,-100.00,South,181,22.0,27.0,82,0.00,,,0.00,195.000000,,2013-02-13 18:32:00,
2013-02-13 11:41:00,26.0,21.0,-100.00,South,181,22.0,27.0,82,0.00,,,0.00,195.000000,,2013-02-13 18:41:00,
2013-02-13 11:51:00,26.0,21.0,-100.00,South,181,22.0,27.0,82,0.00,,,0.00,195.000000,,2013-02-13 18:51:00,
2013-02-13 12:21:00,27.0,22.0,-100.00,South,182,19.0,30.0,82,0.02,,,-99.99,525.000000,,2013-02-13 19:21:00,
2013-02-13 12:31:00,27.0,22.0,-100.00,South,182,19.0,30.0,82,0.02,,,-99.99,525.000000,,2013-02-13 19:31:00,
2013-02-13 12:41:00,27.0,22.0,-100.00,South,182,19.0,30.0,82,0.02,,,-99.99,525.000000,,2013-02-13 19:41:00,
2013-02-13 12:51:00,27.0,22.0,-100.00,South,182,19.0,30.0,82,0.02,,,-99.99,525.000000,,2013-02-13 19:51:00,
2013-02-13 13:21:00,28.0,22.0,-100.00,SSE,168,19.0,31.0,78,0.02,,,0.04,556.000000,,2013-02-13 20:21:00,
2013-02-13 13:31:00,28.0,22.0,-100.00,SSE,168,19.0,31.0,78,0.02,,,0.04,556.000000,,2013-02-13 20:31:00,
2013-02-13 13:41:00,28.0,22.0,-100.00,SSE,168,19.0,31.0,78,0.02,,,0.04,556.000000,,2013-02-13 20:41:00,
2013-02-13 13:52:00,28.0,22.0,-100.00,SSE,168,19.0,31.0,78,0.02,,,0.04,556.000000,,2013-02-13 20:52:00,
2013-02-13 14:21:00,29.0,23.0,-100.00,South,173,20.0,36.0,77,0.00,,,-99.99,605.000000,,2013-02-13 21:21:00,
2013-02-13 14:31:00,29.0,23.0,-100.00,South,173,20.0,36.0,77,0.00,,,-99.99,605.000000,,2013-02-13 21:31:00,
2013-02-13 14:42:00,29.0,23.0,-100.00,South,173,20.0,36.0,77,0.00,,,-99.99,605.000000,,2013-02-13 21:42:00,
2013-02-13 14:52:00,29.0,23.0,-100.00,South,173,20.0,36.0,77,0.00,,,-99.99,605.000000,,2013-02-13 21:52:00,
2013-02-13 15:21:00,28.0,22.0,-100.00,South,180,22.0,38.0,77,0.00,,,0.04,565.000000,,2013-02-13 22:21:00,
2013-02-13 15:31:00,28.0,22.0,-100.00,South,180,22.0,38.0,77,0.00,,,0.04,565.000000,,2013-02-13 22:31:00,
2013-02-13 15:42:00,28.0,22.0,-100.00,South,180,22.0,38.0,77,0.00,,,0.04,565.000000,,2013-02-13 22:42:00,
2013-02-13 15:51:00,28.0,22.0,-100.00,South,180,22.0,38.0,77,0.00,,,0.04,565.000000,,2013-02-13 22:51:00,
2013-02-13 16:21:00,28.0,24.0,-100.00,South,173,19.0,32.0,84,0.00,,,0.04,424.000000,,2013-02-13 23:21:00,
2013-02-13 16:32:00,28.0,24.0,-100.00,South,173,19.0,32.0,84,0.00,,,0.04,424.000000,,2013-02-13 23:32:00,
2013-02-13 16:41:00,28.0,24.0,-100.00,South,173,19.0,32.0,84,0.00,,,0.04,424.000000,,2013-02-13 23:41:00,
2013-02-13 16:52:00,28.0,24.0,-100.00,South,173,19.0,32.0,84,0.00,,,0.04,424.000000,,2013-02-13 23:52:00,
2013-02-13 17:21:00,26.0,22.0,-100.00,South,181,22.0,34.0,86,0.00,,,0.04,219.000000,,2013-02-14 00:21:00,
2013-02-13 17:31:00,26.0,22.0,-100.00,South,181,22.0,34.0,86,0.00,,,0.04,219.000000,,2013-02-14 00:31:00,
2013-02-13 17:42:00,26.0,22.0,-100.00,South,181,22.0,34.0,86,0.00,,,0.04,219.000000,,2013-02-14 00:42:00,
2013-02-13 17:51:00,26.0,22.0,-100.00,South,181,22.0,34.0,86,0.00,,,0.04,219.000000,,2013-02-14 00:51:00,
2013-02-13 18:21:00,26.0,22.0,-100.00,South,184,21.0,29.0,86,0.00,,,0.04,46.000000,,2013-02-14 01:21:00,
2013-02-13 18:31:00,26.0,22.0,-100.00,South,184,21.0,29.0,86,0.00,,,0.04,46.000000,,2013-02-14 01:31:00,
2013-02-13 18:41:00,26.0,22.0,-100.00,South,184,21.0,29.0,86,0.00,,,0.04,46.000000,,2013-02-14 01:41:00,
2013-02-13 18:51:00,26.0,22.0,-100.00,South,184,21.0,29.0,86,0.00,,,0.04,46.000000,,2013-02-14 01:51:00,
2013-02-13 19:21:00,26.0,22.0,-100.00,South,188,18.0,28.0,85,0.00,,,0.04,1.000000,,2013-02-14 02:21:00,
2013-02-13 19:31:00,26.0,22.0,-100.00,South,188,18.0,28.0,85,0.00,,,0.04,1.000000,,2013-02-14 02:31:00,
2013-02-13 19:41:00,26.0,22.0,-100.00,South,188,18.0,28.0,85,0.00,,,0.04,1.000000,,2013-02-14 02:41:00,
2013-02-13 19:51:00,26.0,22.0,-100.00,South,188,18.0,28.0,85,0.00,,,0.04,1.000000,,2013-02-14 02:51:00,
2013-02-13 20:21:00,27.0,22.0,-100.00,South,189,15.0,30.0,82,0.00,,,0.04,0.000000,,2013-02-14 03:21:00,
2013-02-13 20:31:00,27.0,22.0,-100.00,South,189,15.0,30.0,82,0.00,,,0.04,0.000000,,2013-02-14 03:31:00,
2013-02-13 20:42:00,27.0,22.0,-100.00,South,189,15.0,30.0,82,0.00,,,0.04,0.000000,,2013-02-14 03:42:00,
2013-02-13 20:51:00,27.0,22.0,-100.00,South,189,15.0,30.0,82,0.00,,,0.04,0.000000,,2013-02-14 03:51:00,
2013-02-13 21:11:00,27.0,23.0,-100.00,South,170,19.0,28.0,83,0.00,,,0.04,0.000000,,2013-02-14 04:11:00,
2013-02-13 21:21:00,27.0,23.0,-100.00,South,170,19.0,28.0,83,0.00,,,0.04,0.000000,,2013-02-14 04:21:00,
2013-02-13 21:31:00,27.0,23.0,-100.00,South,170,19.0,28.0,83,0.00,,,0.04,0.000000,,2013-02-14 04:31:00,
2013-02-13 21:41:00,27.0,23.0,-100.00,South,170,19.0,28.0,83,0.00,,,0.04,0.000000,,2013-02-14 04:41:00,
2013-02-13 21:51:00,27.0,23.0,-100.00,South,170,19.0,28.0,83,0.00,,,0.04,0.000000,,2013-02-14 04:51:00,
2013-02-13 22:21:00,25.0,23.0,-100.00,South,173,22.0,29.0,91,0.00,,,0.04,0.000000,,2013-02-14 05:21:00,
2013-02-13 22:31:00,25.0,23.0,-100.00,South,173,22.0,29.0,91,0.00,,,0.04,0.000000,,2013-02-14 05:31:00,
2013-02-13 22:41:00,25.0,23.0,-100.00,South,173,22.0,29.0,91,0.00,,,0.04,0.000000,,2013-02-14 05:41:00,
2013-02-13 22:52:00,25.0,23.0,-100.00,South,173,22.0,29.0,91,0.00,,,0.04,0.000000,,2013-02-14 05:52:00,
2013-02-13 23:11:00,25.0,24.0,-100.00,South,175,19.0,25.0,95,0.00,,,0.04,0.000000,,2013-02-14 06:11:00,
2013-02-13 23:21:00,25.0,24.0,-100.00,South,175,19.0,25.0,95,0.00,,,0.04,0.000000,,2013-02-14 06:21:00,
2013-02-13 23:31:00,25.0,24.0,-100.00,South,175,19.0,25.0,95,0.00,,,0.04,0.000000,,2013-02-14 06:31:00,
2013-02-13 23:41:00,25.0,24.0,-100.00,South,175,19.0,25.0,95,0.00,,,0.04,0.000000,,2013-02-14 06:41:00,
2013-02-13 23:51:00,25.0,24.0,-100.00,South,175,19.0,25.0,95,0.00,,,0.04,0.000000,,2013-02-14 06:51:00,